User: anonymous   Login
Location: Mentone
(34.5413°N, 85.5351°W)
Time: 04:12:57
(UTC-05:00)
Language:

Cosmos 2026 Rocket - Orbit

View from above orbital plane
View from above orbital plane
View from above satellite
View from above satellite

Ground track
Ground track

The orbit data is extracted from the following two-line orbital elements,

1 20046U 89042B   18115.92714949 -.00000020 +00000-0 -34932-4 0  9995
2 20046 082.9375 070.1326 0040667 271.9648 087.6853 13.78121674452128
Epoch (UTC): 25 April 2018 22:15:05
Eccentricity: 0.0040667
inclination: 82.9375°
perigee height: 940 km
apogee height: 1000 km
right ascension of ascending node: 70.1326°
argument of perigee: 271.9648°
revolutions per day: 13.78121674
mean anomaly at epoch: 87.6853°
orbit number at epoch: 45212

The dashed part of the orbit path shows where the satellite is in the earth's shadow,  

DLR